Location: Montclair
(37.8322°N, 122.2092°W)
Time: 15:55:10
(UTC+00:00)

Daily predictions for brighter satellites

Satellite Brightness Start Highest point End
(mag) Time Altitude Azimuth Time Altitude Azimuth Time Altitude Azimuth
Cosmos 2228 4.3 12:02:17 10° N 12:06:16 38° E 12:10:12 10° SSE
CENTAUR R/B 3.1 12:07:44 33° NW 12:12:04 77° WSW 12:20:45 10° SSE
Milstar 3 4.0 12:10:45 26° SSW 12:13:04 31° SSE 12:18:51 10° ESE
MSX 3.8 12:09:46 10° NNE 12:15:32 83° ESE 12:20:12 16° S
Okean 1-7 Rocket 4.1 12:15:44 14° S 12:19:27 58° E 12:23:53 10° NNE
BREEZE-M DEB (TANK) 3.6 12:18:14 54° SW 12:19:36 84° SSE 12:23:05 10° ENE
Cosmos 1726 Rocket 4.1 12:18:39 10° N 12:22:54 57° E 12:27:09 10° SSE
Cosmos 1674 4.4 12:24:10 10° SSE 12:27:30 32° E 12:30:51 10° NNE
Cosmos 2237 Rocket 3.6 12:31:16 23° NNW 12:31:16 23° NNW 12:34:18 10° N
ATLAS 2AS CENTAUR R/B 4.1 12:35:31 25° NW 12:36:33 26° NW 12:43:01 10° NNE
Meteor 1-31 Rocket 3.0 12:35:35 10° NNE 12:39:21 68° E 12:43:07 10° S
Cosmos 676 Rocket 4.4 12:40:58 41° WNW 12:40:58 41° WNW 12:45:38 10° N
Cosmos 2369 Rocket 4.3 12:41:23 10° N 12:45:59 25° ENE 12:50:33 10° ESE
SJ-6F 4.3 12:43:24 10° N 12:47:30 65° WNW 12:49:39 27° SSW
IDEFIX/ARIANE 42P 3.5 12:44:45 10° N 12:48:23 29° NW 12:48:23 29° NW
SL-8 R/B 3.6 12:48:21 43° WSW 12:49:51 74° NNW 12:54:39 10° NE
Meteor 2-5 Rocket 4.0 12:45:44 10° S 12:51:30 74° E 12:57:25 10° NNE
Cosmos 2058 Rocket 3.1 12:49:17 10° N 12:53:44 84° E 12:58:12 10° S
Cosmos 1484 Rocket 4.1 12:50:41 10° NNE 12:54:21 42° E 12:58:03 10° S
Cosmos 962 Rocket 4.4 12:49:01 10° S 12:55:18 81° W 13:01:42 10° N
H-2A R/B 3.2 12:54:52 10° N 12:58:39 34° WNW 12:58:39 34° WNW
Okean O Rocket 3.9 12:55:44 10° NE 12:59:29 27° E 13:03:11 10° SSE
Cosmos 44 Rocket 3.1 12:56:06 17° NNW 12:59:40 81° WSW 13:04:20 10° SSE
CZ-4B R/B 2.6 12:57:39 10° N 13:01:30 64° WNW 13:05:08 10° SSW
Cosmos 1943 Rocket 3.5 12:57:45 10° N 13:03:06 40° ENE 13:08:23 10° SE
USA 267 4.2 12:57:57 10° NNE 13:03:26 30° NNW 13:06:27 21° WNW
BREEZE-M DEB (TANK) 4.4 13:03:21 13° NNW 13:03:46 14° NNW 13:05:23 10° NNE
Cosmos 2218 Rocket 4.5 12:59:16 10° S 13:05:34 66° E 13:11:50 10° NNE
Cosmos 1892 Rocket 4.0 13:04:32 12° SW 13:08:12 37° WNW 13:12:18 10° N
Cosmos 2154 Rocket 4.4 13:03:25 10° SW 13:09:07 38° WNW 13:14:54 10° N
Meteor PRIRODA 3.5 13:07:16 10° N 13:10:59 74° WNW 13:14:41 10° SSW
Cosmos 1356 4.2 13:14:57 29° W 13:15:07 29° W 13:18:08 10° SSW
RESURS DK-1 4.3 13:19:16 14° NW 13:19:16 14° NW 13:20:55 10° NNW
Cosmos 1850 Rocket 4.2 13:14:42 10° SW 13:19:41 48° WNW 13:24:42 10° N
ISS -1.5 13:17:31 10° S 13:20:20 25° SE 13:23:08 10° ENE
DELTA 2 R/B (1) 4.2 13:18:19 10° SW 13:23:43 54° SSE 13:29:06 10° E
KORONAS-FOTON 4.0 13:21:12 10° SSW 13:24:48 45° W 13:28:28 10° N
Cosmos 1603 3.7 13:20:12 10° SSW 13:25:49 86° WNW 13:31:31 10° NNE
SL-16 R/B 3.2 13:23:06 17° W 13:26:03 25° WNW 13:30:41 10° N
SL-14 R/B 3.7 13:23:06 10° S 13:26:59 64° E 13:30:50 10° NNE
PSLV R/B 3.5 13:27:28 21° NW 13:28:47 38° N 13:31:17 10° ENE
Cosmos 864 Rocket 4.5 13:25:20 10° S 13:31:33 86° W 13:37:51 10° N
Cosmos 1726 3.0 13:29:12 10° NNW 13:32:22 28° W 13:35:32 10° SSW
CZ-2C R/B 3.4 13:29:01 10° N 13:33:22 28° WNW 13:37:39 10° SW
USA 234 3.3 13:28:42 10° SE 13:35:14 73° SW 13:41:47 10° NW
Helios 1A Rocket 3.0 13:31:15 10° NNE 13:35:25 83° ESE 13:39:34 10° SSW
GP-B 3.7 13:31:25 10° SSW 13:35:26 34° W 13:39:28 10° NNW
Cosmos 468 Rocket 3.9 13:31:20 10° NNW 13:36:26 64° WSW 13:41:29 10° S
Meteor 1-24 Rocket 3.8 13:31:35 10° SSW 13:37:17 62° W 13:43:12 10° N
COBE Rocket 4.0 13:34:33 10° S 13:39:33 63° W 13:44:41 10° NNW
Cosmos 1437 Rocket 4.1 13:37:40 10° WSW 13:40:13 17° WNW 13:42:47 10° NNW
Cosmos 1626 Rocket 3.7 13:36:57 10° SSW 13:41:07 48° W 13:45:19 10° N
Cosmos 2341 Rocket 4.5 13:35:35 10° SW 13:41:17 37° WNW 13:46:59 10° N
Milstar 3 Cent rocket 3.3 13:36:34 10° WSW 13:41:33 29° S 13:45:35 10° ESE
Cosmos 1812 Rocket 3.7 13:38:35 10° N 13:43:04 81° E 13:47:29 10° S
Cosmos 1908 4.1 13:47:15 10° NNW 13:50:31 27° W 13:53:45 10° SSW
Cosmos 1825 Rocket 4.3 13:47:25 10° S 13:51:38 57° E 13:55:53 10° NNE
COSMO-SKYMED 1 2.8 13:47:44 10° S 13:51:56 49° W 13:56:10 10° NNW
Cosmos 841 Rocket 3.7 13:47:45 10° NNW 13:53:03 77° ENE 13:58:15 10° SSE
SL-8 Rocket 4.4 13:48:56 10° SSW 13:54:41 40° WNW 14:00:28 10° N
ATLAS 3B R/B 4.2 13:51:16 10° WNW 13:54:45 15° WSW 13:58:16 10° SW
Gblst 52 Del rocket 4.3 13:50:07 10° NW 13:55:40 68° SW 14:01:47 10° SE
Cosmos 1943 3.2 13:50:46 10° SSW 13:56:25 66° WNW 14:02:06 10° NNE
Cosmos 1570 Rocket 4.1 13:53:09 10° NNW 13:58:23 59° WSW 14:03:34 10° S
SJ-12 4.4 13:55:41 10° N 13:59:30 38° WNW 14:03:19 10° SW
